Reflectivity
-20 -20 -20 -20 -20 -20 -16 -20 -20 -20 -20 8 -20 -20 -20 -20 -20 -20 -20 -20 -20 -20 -20 -20 -20 -20 -20 -7 -16 -14 -20 -13 -20 -20 -12 -20 3 15 12 20 22 28 31 29
-20 -20 -20 -20 -20 -20 -20 -20 -20 -20 -20 -20 -20 -20 -20 -20 -20 -20 -20 -20 -20 -20 -20 -20 -20 -20 -20 7 -12 -8 -20 -10 15 -9 -15 -4 -3 23 15 21 29 27 29 24
-20 -20 -20 -20 -20 -17 -20 -20 -20 4 -9 -7 -20 -20 -13 -20 -20 -20 -20 -20 -20 -20 -20 -20 -20 -20 -20 -16 -4 7 3 -9 -6 17 3 1 -2 12 10 25 28 26 22 23
-20 -20 -20 -20 -20 -20 -20 -20 -1 6 -17 -20 -1 -5 -20 -20 -20 -20 -20 -20 -20 -20 -20 -20 -20 -20 -20 -20 -16 11 -9 5 -10 1 -2 -2 20 14 13 10 22 26 29 30
-20 -20 -20 -4 -20 -11 1 -5 -6 2 -20 3 -20 -20 -20 -16 -20 -20 -20 -20 -20 -20 -20 -20 -20 -20 -20 -20 -5 11 0 5 -20 3 -20 -20 -20 0 10 2 6 13 17 26
-20 -20 -20 -20 -20 -20 -15 -19 -20 -20 -18 -10 -20 -20 -20 5 -20 -18 -20 -20 -20 -20 -20 -20 -20 -20 -20 -20 -20 -10 13 -11 -20 -4 -20 -20 -20 -20 -20 -5 4 7 12 16
-20 -20 -3 -13 -20 -2 -9 -20 -20 -4 -2 -18 -20 -20 -20 12 -10 -20 13 -20 -20 -20 -20 -20 -20 -20 -20 -20 -11 -20 1 -18 -20 -19 -1 -20 -20 -20 -20 -20 -20 -20 -20 -18
-20 -20 -1 -0 -20 -6 -20 -20 -20 -17 -1 -3 -10 -0 -20 6 4 -20 -0 -20 -20 -20 -20 -20 -20 -20 -20 -20 -20 11 -7 -20 -20 -16 -20 -20 -20 -20 -20 -20 -20 -20 -20 -20
-20 -20 -20 -20 -20 5 -18 -17 -20 -20 -13 19 -11 -20 9 -16 5 5 -20 -20 -20 -20 -20 -20 -20 -20 -20 -20 -20 -20 -20 -20 -3 -2 -20 1 -20 -20 -20 -20 -20 -20 -20 -20
-14 19 -20 -20 -20 2 -20 9 -20 -20 -19 -20 -20 18 9 19 13 10 -17 -20 -20 -20 -20 -20 -20 -20 -20 -20 -20 -20 -20 -20 -20 -0 -1 -1 -20 -20 -20 -20 -18 -20 -20 -20
-20 -20 25 -20 -20 -17 2 -20 -20 -20 -20 -20 -9 6 9 17 10 25 8 8 -20 -20 -20 -20 -20 -20 -20 -20 -20 -20 -20 -20 -20 -20 -20 -11 -20 -20 -20 -20 -20 -20 -20 -20
-20 -20 -20 1 -20 -20 -19 -20 -2 -20 -20 -18 -20 -15 18 17 22 21 6 -11 -7 -20 -20 -20 -20 -20 -20 -20 -20 -20 -20 -20 -20 -20 -20 -19 -20 -20 -20 -20 -20 -20 -20 -20
-20 -17 -20 13 -6 -20 -20 -20 -20 -13 -20 -20 4 -4 12 16 25 13 1 -12 -20 -20 -20 -20 -20 -20 -20 -20 -20 -20 -20 -20 -20 -20 -20 -20 -17 -20 -3 -2 -20 -4 -13 -20
-20 -20 -20 -0 7 -20 -20 4 -1 -3 12 -11 -20 -17 20 11 19 4 -2 -20 -20 -20 -17 -20 -20 -20 -20 -20 -20 -20 -20 -20 -20 -20 -20 -20 -20 -20 -20 -20 -20 -20 -7 3
-20 -20 -20 -20 -20 -20 -20 -20 -20 -20 -20 -20 -20 -20 7 24 5 -18 -20 -20 -20 -20 -13 10 -15 -20 -20 -20 -20 -20 -20 -20 -20 -20 -20 -20 -20 -20 -20 -20 -20 -20 -20 -20
-20 -20 -20 -20 -20 -20 -20 -20 -20 -20 -20 -20 -20 -20 -20 -20 -20 -6 -20 -4 -19 -20 -20 -20 6 -20 -20 -20 -20 -20 -20 -20 -20 -20 -20 -20 -20 -20 -20 -20 -20 -20 -2 4
3 -20 -16 -19 -19 -20 -20 -20 -20 -20 -20 -20 -20 -20 -16 -20 -20 -20 -6 -17 -20 -20 -20 -20 -20 -20 -17 -20 -20 -20 -20 -20 -20 -20 -20 -20 -20 -20 -20 -20 -20 -20 -4 -1
9 3 4 -11 -20 -16 -20 -20 -20 -20 -20 -20 -20 -20 -20 -20 -20 -20 -16 5 -16 -20 -20 -20 -20 -20 -3 3 -20 -20 -20 -20 -20 -20 -20 -20 -20 -20 -20 -20 -20 -20 -20 -20
-20 -20 14 -7 -20 -20 -20 -20 -20 -17 6 -20 -20 -20 -20 -20 -20 -20 -20 -18 -5 -19 -20 -20 -20 -20 -13 -16 -20 -20 -20 -20 -20 -20 -20 -20 -20 -20 -20 -20 -20 -20 -20 -8
-16 -10 12 11 -4 -1 -17 -18 -20 -20 8 -20 -20 -20 -20 -20 -20 -20 -20 -20 -20 -20 -20 -20 -20 -20 -20 -20 -20 -20 -20 -20 -19 -20 -20 -20 -20 -20 -20 -20 -20 -20 16 14
0 12 3 11 13 -11 20 -12 -20 -20 7 -20 -20 -20 -20 -20 -20 -20 -20 -20 -20 -20 -20 -20 -20 -20 -20 -20 -20 -20 -20 -20 26 -20 -20 -20 -20 -6 3 -19 -20 -20 4 19
-11 12 15 4 14 9 -20 -20 -8 -14 -20 -20 -14 -19 -20 -20 -20 -20 -20 -20 -20 -20 -20 -20 -20 -20 -20 -20 -20 -20 -20 -11 -5 -20 -20 -20 -20 -20 -11 -6 -20 -20 -4 9
18 -20 -20 -20 -20 -20 -20 -20 -20 -20 -20 -20 -20 -20 -20 -20 -20 -20 -20 -20 -20 -16 -20 -20 -20 -20 -20 -20 -20 -20 -20 -20 19 -20 -20 -20 -20 -20 -11 -1 2 20 22 17
26 -2 15 10 -3 8 -3 -20 3 -20 -20 -20 -20 -20 -20 -20 -20 -15 -20 -20 -19 -17 -20 -20 -19 -20 -13 12 11 -9 -17 -20 -12 10 -20 -4 -11 -1 8 16 28 25 11 17
11 22 8 29 7 0 -8 -13 -15 -20 -20 -20 -20 -20 -20 -20 -20 -20 -20 -19 2 8 5 -19 18 5 -15 14 15 15 19 -0 -2 -3 8 10 12 11 9 15 20 24 31 27
-20 16 23 2 22 -20 18 12 5 -19 -20 -20 -20 -20 -20 -20 -20 -20 -18 -6 8 17 6 -15 16 9 1 10 12 20 21 23 23 18 10 16 11 17 20 22 19 23 24 22
Wind_Speed
19 16 19 22 22 24 22 22 22 22 20 19 12 12 14 15 16 13 12 10 12 10 10 14 9 9 11 9 9 9 6 8 3 3 1 3 6 9 8 12 18 12 6 5
16 23 21 22 23 24 25 25 26 22 23 21 20 15 14 15 18 15 16 14 10 11 18 14 12 10 10 10 9 10 9 9 3 4 2 2 6 7 10 10 13 12 7 7
20 17 24 22 23 25 25 24 20 23 21 24 22 17 15 19 20 19 18 12 8 13 19 15 15 10 11 10 10 9 11 12 6 9 6 7 9 8 10 11 10 9 10 8
22 20 21 22 23 22 24 19 20 16 18 15 20 16 18 15 17 16 19 14 6 8 19 17 15 13 12 11 10 10 9 12 10 10 9 12 10 10 9 11 9 9 8 7
21 20 21 22 23 16 19 20 17 17 18 19 23 16 11 15 14 18 14 14 15 14 19 19 16 15 13 13 12 10 11 10 14 10 10 8 10 9 10 8 11 11 8 7
22 20 22 22 21 22 16 16 13 13 11 17 19 21 14 14 18 13 8 6 2 12 18 18 16 15 15 13 12 12 12 12 11 13 14 12 12 14 11 12 12 10 10 9
22 23 22 20 14 16 16 10 8 9 7 11 16 18 14 12 16 5 10 9 4 11 16 17 18 16 16 16 14 12 14 12 11 11 14 13 14 14 16 16 13 14 11 9
11 16 25 17 19 18 19 17 9 13 10 9 9 10 14 13 18 8 3 2 13 11 14 16 18 16 16 17 15 14 14 14 13 12 13 12 15 10 11 14 12 10 11 11
9 17 18 24 16 20 18 20 17 18 7 2 8 15 18 5 10 6 3 6 9 12 14 16 18 16 16 17 17 15 16 13 14 12 12 13 13 14 13 17 13 11 10 9
5 9 5 4 22 16 17 11 13 11 14 14 9 4 8 10 5 6 7 7 8 10 15 15 16 17 15 17 16 16 16 17 16 15 12 12 14 12 12 12 15 15 13 13
6 6 4 5 7 14 14 16 16 13 12 10 8 3 4 11 12 10 12 5 3 1 14 15 14 17 16 16 17 16 16 16 18 17 15 14 13 15 12 12 14 15 16 16
7 5 5 13 7 1 6 18 19 11 12 8 10 7 8 1 10 8 10 12 3 6 7 12 14 17 16 17 16 17 15 15 16 17 17 15 15 15 15 15 14 15 16 17
8 4 6 7 5 8 8 10 10 16 11 14 6 6 9 10 6 1 5 10 13 3 2 8 13 16 16 16 16 17 16 15 15 17 16 17 16 16 16 16 16 17 16 15
5 6 10 7 9 10 4 9 6 7 5 10 12 12 4 17 15 4 5 6 10 10 7 5 8 11 16 16 16 16 16 14 14 16 17 17 17 17 17 15 13 11 9 10
3 6 13 16 14 13 12 12 11 11 8 8 12 15 13 8 11 12 11 11 12 14 14 6 6 7 8 15 15 15 16 16 14 14 16 17 17 16 16 16 16 14 13 12
2 8 10 14 16 15 17 17 18 16 15 15 15 19 16 15 13 12 10 9 11 12 16 15 8 6 11 9 14 15 15 17 16 15 15 14 14 15 15 14 14 13 13 12
2 4 7 10 12 14 13 15 16 15 16 15 17 14 14 13 14 11 12 16 15 11 11 15 11 6 5 10 12 15 15 16 17 17 15 15 15 15 14 11 12 12 11 7
3 7 4 5 8 8 9 8 4 6 8 10 13 14 16 12 9 10 13 16 20 22 20 19 16 14 5 4 11 13 15 15 17 16 15 13 12 13 11 11 9 8 11 12
12 8 4 4 6 11 16 10 4 6 6 11 10 14 15 16 13 8 15 16 16 19 18 17 18 19 15 13 9 11 13 14 15 16 15 14 13 12 9 11 12 11 13 12
16 11 7 5 6 5 7 8 7 6 4 9 8 9 10 13 7 9 19 18 17 14 14 16 20 17 17 15 8 6 8 12 9 9 6 7 13 16 15 14 14 13 14 14
15 11 13 10 6 8 5 10 5 4 4 7 10 9 10 10 8 13 15 15 14 13 15 16 16 16 14 14 8 8 13 13 10 14 13 12 14 19 18 16 13 15 16 16
13 10 7 8 6 10 9 8 2 2 4 7 7 6 7 6 8 11 16 12 14 12 14 13 12 12 14 15 12 12 12 11 12 15 16 14 13 14 14 19 15 15 16 16
5 8 7 10 6 10 10 10 9 6 5 6 5 7 9 11 12 13 11 9 9 10 10 11 9 8 10 10 8 11 9 10 12 16 16 16 16 14 14 15 14 13 13 16
6 9 3 4 8 10 14 8 14 11 6 8 8 11 11 12 12 10 7 7 10 11 10 9 7 6 7 8 9 9 10 12 13 17 17 14 16 16 15 12 11 9 9 11
4 3 9 10 13 5 8 10 16 13 8 5 11 9 9 10 8 5 7 8 7 8 9 8 7 6 8 9 10 10 11 13 16 16 15 14 13 15 16 14 10 11 10 10
9 10 5 4 7 1 9 8 5 7 8 12 8 9 8 8 7 6 9 9 9 9 8 10 13 13 11 9 12 11 11 12 15 15 13 12 12 12 13 15 19 31 30 31
Wind_Direction
211 222 228 224 227 245 261 266 267 262 268 250 257 239 260 278 277 252 242 202 223 181 144 127 133 133 121 141 142 157 148 133 148 121 116 173 164 172 152 170 159 154 148 105
225 224 234 239 244 241 237 248 263 273 284 293 293 262 269 280 278 266 258 255 194 160 132 141 140 155 146 162 159 155 163 142 151 115 60 101 125 129 122 125 129 129 125 102
220 236 220 234 244 243 245 247 246 265 284 285 284 272 267 261 256 256 263 241 213 176 150 153 155 171 155 165 165 172 172 144 128 118 105 98 103 115 125 120 119 113 110 98
242 244 244 247 226 241 251 243 259 265 273 274 279 281 254 261 269 262 223 228 203 233 150 152 161 171 168 169 173 175 171 147 141 145 137 136 137 139 135 138 127 118 107 97
247 249 258 243 255 236 251 258 241 239 234 270 274 270 263 273 262 263 189 200 197 195 152 155 168 165 173 169 172 169 171 160 152 157 152 145 143 135 142 139 133 128 139 164
260 269 254 239 249 248 260 239 243 268 254 250 246 261 257 253 256 253 194 143 248 166 147 151 163 158 165 161 172 169 172 167 168 156 154 161 150 148 146 153 157 164 172 178
244 249 260 266 260 262 210 215 228 221 216 245 254 245 247 256 260 282 141 145 145 142 148 154 165 164 165 164 178 172 176 176 175 173 162 161 156 160 163 161 169 170 179 185
218 238 232 239 222 238 209 209 216 216 218 261 329 255 242 221 251 224 197 88 156 160 154 165 168 167 164 161 179 184 178 178 176 183 167 167 166 170 170 173 174 178 183 184
293 263 219 211 209 237 218 210 227 271 246 189 268 282 267 270 286 132 153 195 158 161 163 176 166 169 166 165 176 187 175 181 182 186 173 171 166 181 176 176 178 182 178 178
287 275 175 216 209 218 252 220 212 234 250 251 243 256 286 285 246 221 204 205 172 170 169 177 169 168 169 166 174 184 184 180 177 187 184 181 176 174 172 178 184 183 187 185
335 269 290 173 194 217 218 243 246 258 225 245 257 232 281 333 342 38 1 42 66 221 170 172 178 166 169 166 173 183 185 186 177 180 186 188 184 188 186 184 193 197 196 193
65 307 266 264 180 233 315 221 230 235 239 241 251 236 147 121 348 13 3 358 23 328 184 166 180 165 168 169 173 178 192 192 180 181 178 187 190 189 196 199 198 202 194 199
354 264 284 260 259 233 246 250 238 228 252 254 272 288 206 192 176 69 358 335 337 44 250 172 178 168 172 173 175 181 190 196 182 182 182 180 191 186 199 203 199 194 201 198
343 288 288 281 337 347 292 288 317 285 256 244 250 260 196 316 307 344 8 335 319 334 312 187 200 188 176 176 180 180 184 192 193 180 184 187 187 190 194 198 196 205 197 194
235 271 287 287 287 290 284 282 279 278 271 273 281 284 289 330 336 326 332 336 328 324 315 297 201 198 190 180 179 180 180 186 193 194 190 190 190 189 188 195 199 198 194 202
287 263 268 272 278 272 275 270 269 264 264 262 259 265 279 290 306 308 300 293 293 298 302 308 292 233 187 189 181 181 181 184 186 200 197 191 188 192 193 189 191 195 199 201
309 250 272 271 274 267 263 253 256 259 255 256 259 270 270 273 269 301 334 336 321 302 279 290 324 230 199 189 182 186 189 177 187 195 194 197 185 190 190 191 190 190 189 161
221 266 281 281 293 239 247 263 325 311 291 290 311 250 251 295 329 338 343 15 358 349 350 353 344 335 328 254 187 189 180 181 182 190 195 189 186 186 183 180 179 84 85 90
231 226 253 241 249 275 299 298 268 2 57 35 11 9 16 5 343 334 30 4 352 343 356 344 337 333 337 326 335 184 180 181 179 183 186 183 176 172 168 100 94 94 97 89
213 213 228 197 241 242 84 63 39 324 194 46 22 23 18 352 356 325 345 342 332 338 349 337 329 323 318 315 322 315 178 176 175 169 162 128 102 102 102 105 104 98 93 93
193 193 212 232 252 269 250 316 358 246 48 2 1 3 352 345 348 332 333 320 330 352 347 335 328 318 328 341 316 31 54 69 79 81 73 75 93 106 108 102 101 105 105 101
173 185 190 231 246 251 272 228 332 63 286 317 342 36 335 329 334 331 314 331 327 5 353 346 331 356 4 15 38 62 67 79 87 87 85 81 79 98 104 109 106 101 104 95
206 204 187 190 215 265 330 355 330 275 314 323 353 337 355 334 323 323 340 346 8 8 10 350 349 15 26 31 64 81 74 80 90 89 87 88 86 81 88 94 99 110 110 115
301 214 202 15 272 248 254 245 251 283 319 25 5 18 358 325 315 350 29 22 11 14 9 354 354 42 54 63 73 89 97 94 92 94 92 92 93 94 87 86 89 88 98 99
249 356 248 234 261 10 335 33 4 344 330 325 46 14 347 348 21 34 53 38 28 28 9 14 13 55 70 71 76 80 93 104 101 95 92 89 86 84 85 75 70 83 62 87
268 235 212 259 55 303 288 30 300 325 1 54 26 3 29 16 16 25 55 49 23 39 33 38 33 30 50 75 82 79 80 89 97 97 97 96 94 92 89 91 90 68 78 77